Voltar ao catálogo

STARLINK-32660

AtivoComunicaçõesVLEO
NORAD 62205·PAYLOAD·🇺🇸 United States

Lançado Dec 4, 2024 de Cape Canaveral Space Force Station

Loading…

Próximas Passagens (próximas 24 horas)

TLE

AtualizadoSource: CelesTrak SupGP

Época: Sep 14, 2026, 21:05 UTC

1 62205C 24229P   26257.87895833  .00015662  00000+0  56737-3 0  2574
2 62205  42.9999 268.0827 0001539 268.5351 288.0705 15.27565204    18

Acompanhe STARLINK-32660 em tempo real com AllMySat

Download on the App Store